KG5TTF Weather Reports


Display with metric or nautical units.
time (UTC)temp
F
wind
direction
speed
MPH
gust
MPH
rain 1hr
in
rain 24hr
in
rain mn
in
humidity
%
barometer
mb
20260906213214 88 78 0.0 0.0 0.00 0.00 0.00 35 1023.1
20260906212711 88 328 0.0 0.0 0.00 0.00 0.00 34 1023.3
20260906212207 89 100 0.0 0.0 0.00 0.00 0.00 35 1023.3
20260906211707 90 166 0.0 0.0 0.00 0.00 0.00 32 1023.3
20260906211202 88 15 0.0 0.0 0.00 0.00 0.00 33 1023.2
20260906210657 88 327 0.0 0.0 0.00 0.00 0.00 37 1023.5
20260906210157 88 179 0.0 0.0 0.00 0.00 0.00 36 1023.5
20260906205652 88 117 0.0 0.0 0.00 0.00 0.00 33 1023.7
20260906205149 89 149 1.0 6.0 0.00 0.00 0.00 33 1023.5
20260906204648 89 265 0.0 0.0 0.00 0.00 0.00 35 1023.7
20260906204143 89 206 0.0 1.0 0.00 0.00 0.00 31 1023.6
20260906203643 88 79 0.0 0.0 0.00 0.00 0.00 32 1023.3
20260906203138 87 97 0.0 0.0 0.00 0.00 0.00 35 1023.7
20260906202635 88 177 0.0 0.0 0.00 0.00 0.00 31 1023.8
20260906202134 88 347 0.0 0.0 0.00 0.00 0.00 35 1023.9
20260906201630 87 144 0.0 0.0 0.00 0.00 0.00 33 1023.9
20260906201128 88 202 0.0 0.0 0.00 0.00 0.00 33 1024.1
20260906200625 88 202 0.0 0.0 0.00 0.00 0.00 34 1024.1
20260906200121 87 106 0.0 0.0 0.00 0.00 0.00 33 1023.8
20260906195621 88 63 0.0 0.0 0.00 0.00 0.00 32 1024.1
20260906195117 87 153 0.0 0.0 0.00 0.00 0.00 32 1024.1
20260906194613 87 173 0.0 0.0 0.00 0.00 0.00 33 1024.1
20260906194109 88 165 0.0 0.0 0.00 0.00 0.00 32 1024.4
20260906193609 87 21 0.0 0.0 0.00 0.00 0.00 33 1024.4
20260906193104 87 222 0.0 0.0 0.00 0.00 0.00 34 1024.4
20260906192559 87 184 0.0 0.0 0.00 0.00 0.00 34 1024.6
20260906192058 87 17 0.0 0.0 0.00 0.00 0.00 35 1024.6
20260906191554 86 44 0.0 0.0 0.00 0.00 0.00 35 1024.4
20260906191053 87 85 0.0 0.0 0.00 0.00 0.00 34 1024.4
20260906190552 87 63 0.0 0.0 0.00 0.00 0.00 34 1024.6
20260906190047 87 55 0.0 0.0 0.00 0.00 0.00 33 1024.7
20260906185546 87 66 0.0 0.0 0.00 0.00 0.00 35 1024.7
20260906185045 85 44 0.0 0.0 0.00 0.00 0.00 36 1025.2
20260906184540 86 8 0.0 0.0 0.00 0.00 0.00 35 1025.2
20260906184036 86 35 0.0 0.0 0.00 0.00 0.00 37 1025.3
20260906183532 85 174 0.0 0.0 0.00 0.00 0.00 36 1025.3
20260906183027 86 66 0.0 0.0 0.00 0.00 0.00 34 1025.4
20260906182522 85 145 0.0 0.0 0.00 0.00 0.00 34 1025.8
20260906182019 85 23 0.0 0.0 0.00 0.00 0.00 36 1025.8
20260906181514 84 63 0.0 0.0 0.00 0.00 0.00 36 1025.8
20260906181009 84 53 0.0 0.0 0.00 0.00 0.00 35 1025.9
20260906180504 84 46 0.0 0.0 0.00 0.00 0.00 35 1026.3
20260906180002 83 30 0.0 0.0 0.00 0.00 0.00 36 1025.9
20260906175457 82 51 0.0 0.0 0.00 0.00 0.00 36 1026.3
20260906174956 82 47 0.0 0.0 0.00 0.00 0.00 36 1026.1
20260906174449 83 18 0.0 0.0 0.00 0.00 0.00 36 1026.1
20260906173945 82 41 0.0 0.0 0.00 0.00 0.00 36 1026.6
20260906173440 81 35 0.0 0.0 0.00 0.00 0.00 37 1026.3
20260906172939 82 346 0.0 0.0 0.00 0.00 0.00 36 1026.4
20260906172436 81 43 0.0 0.0 0.00 0.00 0.00 37 1026.5
20260906171930 82 105 0.0 0.0 0.00 0.00 0.00 36 1026.6
20260906171425 82 48 0.0 0.0 0.00 0.00 0.00 35 1026.7
20260906170921 80 54 0.0 0.0 0.00 0.00 0.00 37 1026.5
20260906170417 81 26 0.0 0.0 0.00 0.00 0.00 37 1026.6
20260906165913 81 20 0.0 0.0 0.00 0.00 0.00 39 1026.6
20260906165412 81 315 0.0 0.0 0.00 0.00 0.00 36 1026.6
20260906164907 80 15 0.0 0.0 0.00 0.00 0.00 38 1026.6
20260906164406 78 36 0.0 0.0 0.00 0.00 0.00 38 1026.7
20260906163902 78 56 0.0 0.0 0.00 0.00 0.00 39 1026.7
20260906163358 77 15 0.0 0.0 0.00 0.00 0.00 40 1026.9
20260906162856 77 53 0.0 0.0 0.00 0.00 0.00 39 1026.9
20260906162349 77 12 0.0 0.0 0.00 0.00 0.00 43 1027.0
20260906161844 76 15 0.0 0.0 0.00 0.00 0.00 43 1026.9
20260906161343 76 349 0.0 0.0 0.00 0.00 0.00 41 1027.0
20260906160837 75 320 0.0 0.0 0.00 0.00 0.00 43 1026.7
20260906160331 75 22 0.0 0.0 0.00 0.00 0.00 45 1026.7
20260906155829 73 341 0.0 0.0 0.00 0.00 0.00 48 1026.6
20260906155323 73 349 0.0 0.0 0.00 0.00 0.00 50 1026.5
20260906154820 73 13 0.0 0.0 0.00 0.00 0.00 48 1026.6
20260906154314 73 20 0.0 0.0 0.00 0.00 0.00 50 1026.9
20260906153812 72 58 0.0 0.0 0.00 0.00 0.00 48 1027.0
20260906153307 71 348 0.0 0.0 0.00 0.00 0.00 50 1026.9
20260906152802 71 15 0.0 0.0 0.00 0.00 0.00 53 1027.0
20260906152257 70 7 0.0 0.0 0.00 0.00 0.00 55 1027.0
20260906151756 69 315 0.0 0.0 0.00 0.00 0.00 56 1026.9
20260906151252 69 7 0.0 0.0 0.00 0.00 0.00 58 1026.9
20260906150747 69 313 0.0 0.0 0.00 0.00 0.00 59 1027.0
20260906150243 68 321 0.0 0.0 0.00 0.00 0.00 62 1027.0
20260906145741 68 3 0.0 0.0 0.00 0.00 0.00 63 1026.9
20260906145240 67 358 0.0 0.0 0.00 0.00 0.00 63 1026.7
20260906144736 67 356 0.0 0.0 0.00 0.00 0.00 66 1026.6
20260906144230 66 2 0.0 0.0 0.00 0.00 0.00 66 1026.6
20260906143730 66 9 0.0 0.0 0.00 0.00 0.00 66 1026.6
20260906143227 66 23 0.0 0.0 0.00 0.00 0.00 67 1026.6
20260906142726 66 348 0.0 0.0 0.00 0.00 0.00 67 1026.5
20260906142222 65 353 0.0 0.0 0.00 0.00 0.00 68 1026.5
20260906141721 65 3 0.0 0.0 0.00 0.00 0.00 68 1026.6
20260906141215 64 32 0.0 0.0 0.00 0.00 0.00 69 1026.6
20260906140715 64 331 0.0 0.0 0.00 0.00 0.00 69 1026.7
20260906140210 63 290 0.0 0.0 0.00 0.00 0.00 70 1026.7
20260906135707 63 3 0.0 0.0 0.00 0.00 0.00 69 1026.7
20260906135203 63 9 0.0 0.0 0.00 0.00 0.00 69 1026.5
20260906134658 63 335 0.0 0.0 0.00 0.00 0.00 67 1026.5
20260906134153 62 354 0.0 0.0 0.00 0.00 0.00 67 1026.4
20260906133649 62 266 0.0 0.0 0.00 0.00 0.00 64 1026.3
20260906133143 62 341 0.0 0.0 0.00 0.00 0.00 64 1026.3
20260906132639 61 288 0.0 0.0 0.00 0.00 0.00 64 1025.9
20260906132129 61 275 0.0 0.0 0.00 0.00 0.00 64 1026.3
20260906131625 61 6 0.0 0.0 0.00 0.00 0.00 64 1025.9
20260906131120 60 318 0.0 0.0 0.00 0.00 0.00 65 1026.1
20260906130615 60 319 0.0 0.0 0.00 0.00 0.00 66 1026.0
20260906130115 59 7 0.0 0.0 0.00 0.00 0.00 65 1025.9
20260906125613 60 306 0.0 0.0 0.00 0.00 0.00 65 1026.0
20260906125106 60 15 0.0 0.0 0.00 0.00 0.00 65 1025.8
20260906124602 60 309 0.0 0.0 0.00 0.00 0.00 65 1026.3
20260906124057 60 354 0.0 0.0 0.00 0.00 0.00 64 1026.3
20260906123556 60 356 0.0 0.0 0.00 0.00 0.00 65 1026.1
20260906123052 60 2 0.0 0.0 0.00 0.00 0.00 64 1026.1
20260906122550 60 8 0.0 0.0 0.00 0.00 0.00 63 1026.3
20260906122047 61 292 0.0 0.0 0.00 0.00 0.00 62 1026.1
20260906121543 60 287 0.0 0.0 0.00 0.00 0.00 62 1025.7
20260906121039 61 336 0.0 0.0 0.00 0.00 0.00 62 1026.0
20260906120534 61 2 0.0 0.0 0.00 0.00 0.00 61 1025.7
20260906120031 61 339 0.0 0.0 0.00 0.00 0.00 61 1026.0
20260906115531 62 293 0.0 0.0 0.00 0.00 0.00 61 1025.9
20260906115026 62 311 0.0 0.0 0.00 0.00 0.00 61 1025.8
20260906114525 62 8 0.0 0.0 0.00 0.00 0.00 61 1025.8
20260906114021 62 359 0.0 0.0 0.00 0.00 0.00 60 1025.8
20260906113520 62 15 0.0 0.0 0.00 0.00 0.00 60 1025.7
20260906113016 62 321 0.0 1.0 0.00 0.00 0.00 61 1025.7
20260906112510 62 355 0.0 0.0 0.00 0.00 0.00 60 1025.8
20260906112007 63 4 0.0 0.0 0.00 0.00 0.00 59 1025.8
20260906111506 63 312 0.0 0.0 0.00 0.00 0.00 58 1025.5
20260906111001 63 284 0.0 0.0 0.00 0.00 0.00 58 1025.7
20260906110456 64 3 0.0 0.0 0.00 0.00 0.00 57 1025.8
20260906105955 64 335 0.0 0.0 0.00 0.00 0.00 56 1025.7
20260906105451 64 5 0.0 0.0 0.00 0.00 0.00 55 1025.5
20260906104947 63 8 0.0 0.0 0.00 0.00 0.00 57 1025.5
20260906104445 63 353 0.0 0.0 0.00 0.00 0.00 56 1025.4
20260906103944 63 328 0.0 0.0 0.00 0.00 0.00 56 1025.7
20260906103443 64 7 0.0 0.0 0.00 0.00 0.00 54 1025.5
20260906102938 64 2 0.0 0.0 0.00 0.00 0.00 53 1025.8
20260906102433 64 11 0.0 0.0 0.00 0.00 0.00 53 1025.7
20260906101933 63 345 0.0 0.0 0.00 0.00 0.00 54 1025.8
20260906101429 63 10 0.0 0.0 0.00 0.00 0.00 56 1025.8
20260906100924 63 10 0.0 0.0 0.00 0.00 0.00 55 1025.9
20260906100423 64 10 0.0 0.0 0.00 0.00 0.00 54 1025.7
20260906095918 64 11 0.0 0.0 0.00 0.00 0.00 53 1025.9
20260906095414 65 11 0.0 0.0 0.00 0.00 0.00 52 1025.7
20260906094914 65 10 0.0 0.0 0.00 0.00 0.00 51 1025.4
20260906094408 65 7 0.0 0.0 0.00 0.00 0.00 52 1025.5
20260906093859 66 356 0.0 0.0 0.00 0.00 0.00 51 1025.4
20260906093355 65 338 0.0 0.0 0.00 0.00 0.00 52 1025.5
20260906092855 65 10 0.0 0.0 0.00 0.00 0.00 52 1025.7
20260906092354 66 2 0.0 0.0 0.00 0.00 0.00 51 1025.4
20260906091850 66 13 0.0 0.0 0.00 0.00 0.00 51 1025.4
20260906091346 65 1 0.0 0.0 0.00 0.00 0.00 53 1025.3
20260906090843 65 2 0.0 0.0 0.00 0.00 0.00 53 1025.3
20260906090342 65 11 0.0 0.0 0.00 0.00 0.00 53 1025.3
20260906085836 65 9 0.0 0.0 0.00 0.00 0.00 55 1025.5
20260906085329 65 341 0.0 0.0 0.00 0.00 0.00 55 1025.3
20260906084824 66 348 0.0 0.0 0.00 0.00 0.00 55 1025.3
20260906084324 66 347 0.0 0.0 0.00 0.00 0.00 54 1025.4
20260906083814 65 293 0.0 0.0 0.00 0.00 0.00 55 1025.7
20260906083309 64 6 0.0 0.0 0.00 0.00 0.00 59 1025.4
20260906082809 65 86 0.0 0.0 0.00 0.00 0.00 57 1025.7
20260906082306 64 349 0.0 0.0 0.00 0.00 0.00 58 1025.8
20260906081759 64 349 0.0 0.0 0.00 0.00 0.00 57 1025.8
20260906081255 64 349 0.0 0.0 0.00 0.00 0.00 57 1025.8
20260906080752 64 349 0.0 0.0 0.00 0.00 0.00 57 1025.9
20260906080248 64 349 0.0 0.0 0.00 0.00 0.00 56 1025.9
20260906075748 64 349 0.0 0.0 0.00 0.00 0.00 55 1025.8
20260906075247 64 349 0.0 0.0 0.00 0.00 0.00 55 1025.9
20260906074743 65 349 0.0 0.0 0.00 0.00 0.00 54 1025.8
20260906074242 65 349 0.0 0.0 0.00 0.00 0.00 53 1025.8
20260906073742 65 349 0.0 0.0 0.00 0.00 0.00 53 1025.8
20260906073237 65 352 0.0 0.0 0.00 0.00 0.00 53 1025.8
20260906072732 66 352 0.0 0.0 0.00 0.00 0.00 52 1025.8
20260906072228 66 354 0.0 0.0 0.00 0.00 0.00 50 1025.5
20260906071724 67 13 0.0 0.0 0.00 0.00 0.00 49 1025.7
20260906071224 68 334 0.0 0.0 0.00 0.00 0.00 48 1025.7
20260906070720 69 355 0.0 0.0 0.00 0.00 0.00 46 1025.5
20260906070216 69 281 0.0 0.0 0.00 0.00 0.00 46 1025.4
20260906065715 68 6 0.0 0.0 0.00 0.00 0.00 48 1025.4
20260906065211 69 21 0.0 0.0 0.00 0.00 0.00 47 1025.5
20260906064706 69 297 0.0 0.0 0.00 0.00 0.00 47 1025.5
20260906064201 69 316 0.0 0.0 0.00 0.00 0.00 46 1025.5
20260906063656 69 329 0.0 0.0 0.00 0.00 0.00 45 1025.3
20260906063152 69 5 0.0 0.0 0.00 0.00 0.00 46 1025.5
20260906062648 69 7 0.0 0.0 0.00 0.00 0.00 45 1025.3
20260906062146 69 341 0.0 0.0 0.00 0.00 0.00 44 1025.5
20260906061643 70 352 0.0 0.0 0.00 0.00 0.00 44 1025.7
20260906061142 70 355 0.0 0.0 0.00 0.00 0.00 44 1025.7
20260906060639 71 1 0.0 0.0 0.00 0.00 0.00 43 1025.4
20260906060136 71 16 0.0 0.0 0.00 0.00 0.00 41 1025.7
20260906055631 71 346 0.0 0.0 0.00 0.00 0.00 41 1025.9
20260906055126 71 350 0.0 0.0 0.00 0.00 0.00 42 1025.8
20260906054621 71 358 0.0 0.0 0.00 0.00 0.00 42 1025.8
20260906054117 72 354 0.0 0.0 0.00 0.00 0.00 40 1025.7
20260906053613 71 21 0.0 0.0 0.00 0.00 0.00 41 1025.8
20260906053108 71 324 0.0 0.0 0.00 0.00 0.00 41 1025.7
20260906052604 72 22 0.0 0.0 0.00 0.00 0.00 39 1025.8
20260906052101 73 8 0.0 0.0 0.00 0.00 0.00 39 1025.8
20260906051556 73 311 0.0 0.0 0.00 0.00 0.00 38 1025.8
20260906051051 73 331 0.0 0.0 0.00 0.00 0.00 38 1025.8
20260906050546 74 9 0.0 0.0 0.00 0.00 0.00 36 1026.0
20260906050041 75 1 0.0 0.0 0.00 0.00 0.00 35 1026.0
20260906045539 74 9 0.0 0.0 0.00 0.00 0.00 35 1025.9
20260906045035 73 354 0.0 0.0 0.00 0.00 0.00 37 1025.9
20260906044531 73 5 0.0 0.0 0.00 0.00 0.00 39 1026.0
20260906044026 73 5 0.0 0.0 0.00 0.00 0.00 40 1026.3
20260906043521 73 111 0.0 0.0 0.00 0.00 0.00 41 1026.3
20260906043018 73 6 0.0 0.0 0.00 0.00 0.00 43 1026.0
20260906042516 73 331 0.0 0.0 0.00 0.00 0.00 43 1026.1
20260906042011 73 2 0.0 0.0 0.00 0.00 0.00 47 1026.1
20260906041508 73 4 0.0 0.0 0.00 0.00 0.00 51 1025.9
20260906041007 73 340 0.0 0.0 0.00 0.00 0.00 53 1026.0
20260906040502 74 339 0.0 0.0 0.00 0.00 0.00 53 1026.0
20260906035957 74 339 0.0 0.0 0.00 0.00 0.00 52 1026.1
20260906035452 74 309 0.0 0.0 0.00 0.00 0.00 52 1026.1
20260906034943 74 353 0.0 0.0 0.00 0.00 0.00 52 1026.5
20260906034443 74 3 0.0 0.0 0.00 0.00 0.00 51 1026.0
20260906033938 74 10 0.0 0.0 0.00 0.00 0.00 51 1026.3
20260906033439 75 7 0.0 0.0 0.00 0.00 0.00 50 1026.3
20260906032935 75 23 0.0 0.0 0.00 0.00 0.00 50 1026.1
20260906032431 75 22 0.0 0.0 0.00 0.00 0.00 48 1026.1
20260906031930 74 105 0.0 0.0 0.00 0.00 0.00 49 1026.1
20260906031426 75 104 0.0 0.0 0.00 0.00 0.00 47 1026.0
20260906030921 74 27 0.0 0.0 0.00 0.00 0.00 41 1026.1
20260906030415 74 48 0.0 0.0 0.00 0.00 0.00 38 1025.9
20260906025910 73 24 0.0 0.0 0.00 0.00 0.00 36 1025.4
20260906025404 73 115 0.0 0.0 0.00 0.00 0.00 33 1024.8
20260906024903 73 115 0.0 0.0 0.00 0.00 0.00 33 1024.7
20260906024402 73 115 0.0 0.0 0.00 0.00 0.00 33 1024.7
20260906023858 74 115 0.0 0.0 0.00 0.00 0.00 32 1024.6
20260906023355 74 115 0.0 0.0 0.00 0.00 0.00 32 1024.7
20260906022854 75 115 0.0 0.0 0.00 0.00 0.00 33 1024.4
20260906022349 75 115 0.0 0.0 0.00 0.00 0.00 32 1024.3
20260906021845 75 115 0.0 0.0 0.00 0.00 0.00 32 1024.4
20260906021344 76 115 0.0 0.0 0.00 0.00 0.00 32 1024.4
20260906020839 76 115 0.0 0.0 0.00 0.00 0.00 32 1024.4
20260906020338 77 115 0.0 0.0 0.00 0.00 0.00 32 1024.3
20260906015833 77 115 0.0 0.0 0.00 0.00 0.00 30 1024.3
20260906015332 78 115 0.0 0.0 0.00 0.00 0.00 30 1024.3
20260906014826 78 116 0.0 0.0 0.00 0.00 0.00 30 1024.3
20260906014321 78 81 0.0 0.0 0.00 0.00 0.00 30 1024.4
20260906013818 79 152 0.0 0.0 0.00 0.00 0.00 30 1024.2
20260906013314 79 152 0.0 0.0 0.00 0.00 0.00 29 1024.2
20260906012809 80 113 0.0 0.0 0.00 0.00 0.00 30 1024.1
20260906012309 80 272 0.0 0.0 0.00 0.00 0.00 30 1024.4
20260906011804 80 204 0.0 0.0 0.00 0.00 0.00 30 1024.2
20260906011258 81 206 0.0 0.0 0.00 0.00 0.00 28 1024.2
20260906010754 81 193 0.0 0.0 0.00 0.00 0.00 28 1024.3
20260906010250 82 183 0.0 0.0 0.00 0.00 0.00 28 1024.1
20260906005745 82 317 0.0 0.0 0.00 0.00 0.00 27 1024.1
20260906005244 83 215 0.0 0.0 0.00 0.00 0.00 27 1024.4
20260906004743 84 350 0.0 0.0 0.00 0.00 0.00 27 1024.4
20260906004238 84 226 0.0 0.0 0.00 0.00 0.00 26 1024.4
20260906003733 85 240 0.0 0.0 0.00 0.00 0.00 25 1024.4
20260906003229 86 150 0.0 0.0 0.00 0.00 0.00 25 1024.4
20260906002728 86 173 0.0 0.0 0.00 0.00 0.00 24 1024.1
20260906002223 87 181 0.0 0.0 0.00 0.00 0.00 23 1024.3
20260906001719 86 333 0.0 0.0 0.00 0.00 0.00 24 1024.3
20260906001219 85 204 0.0 0.0 0.00 0.00 0.00 25 1024.1
20260906000714 85 69 0.0 0.0 0.00 0.00 0.00 25 1024.1
20260906000211 86 127 0.0 0.0 0.00 0.00 0.00 25 1024.1
20260905235709 86 167 0.0 0.0 0.00 0.00 0.00 24 1024.2
20260905235204 85 343 0.0 0.0 0.00 0.00 0.00 25 1024.2
20260905234659 85 102 0.0 0.0 0.00 0.00 0.00 26 1024.2
20260905234154 86 207 0.0 0.0 0.00 0.00 0.00 25 1024.1
20260905233649 84 168 0.0 2.0 0.00 0.00 0.00 25 1024.2
20260905233149 84 166 0.0 0.0 0.00 0.00 0.00 27 1024.1
20260905232644 85 181 1.0 3.0 0.00 0.00 0.00 26 1024.2
20260905232140 86 163 0.0 0.0 0.00 0.00 0.00 25 1023.9
20260905231634 87 146 0.0 0.0 0.00 0.00 0.00 25 1024.1
20260905231131 88 151 0.0 0.0 0.00 0.00 0.00 23 1023.9
20260905230627 89 157 0.0 0.0 0.00 0.00 0.00 22 1023.9
20260905230125 89 215 0.0 0.0 0.00 0.00 0.00 23 1024.1
20260905225618 87 37 0.0 0.0 0.00 0.00 0.00 23 1024.1
20260905225108 89 50 0.0 0.0 0.00 0.00 0.00 22 1023.9
20260905224607 89 50 0.0 0.0 0.00 0.00 0.00 22 1024.1
20260905224107 89 48 0.0 0.0 0.00 0.00 0.00 20 1023.8
20260905223604 88 343 0.0 0.0 0.00 0.00 0.00 21 1024.1
20260905223100 87 52 0.0 0.0 0.00 0.00 0.00 21 1023.9
20260905222600 86 53 0.0 0.0 0.00 0.00 0.00 23 1023.9
20260905222055 86 41 0.0 0.0 0.00 0.00 0.00 23 1024.1
20260905221551 86 40 0.0 0.0 0.00 0.00 0.00 23 1024.2
20260905221047 87 61 0.0 0.0 0.00 0.00 0.00 23 1024.1
20260905220543 87 315 0.0 0.0 0.00 0.00 0.00 22 1024.1
20260905220039 89 37 0.0 0.0 0.00 0.00 0.00 21 1023.9
20260905215538 89 67 0.0 0.0 0.00 0.00 0.00 22 1023.9
20260905215034 88 51 0.0 0.0 0.00 0.00 0.00 21 1024.1
20260905214530 89 358 1.0 1.0 0.00 0.00 0.00 20 1024.2
20260905214025 89 42 0.0 0.0 0.00 0.00 0.00 23 1024.3
20260905213520 88 33 0.0 0.0 0.00 0.00 0.00 21 1024.2